Time,TemperatureF,DewpointF,PressureIn,WindDirection,WindDirectionDegrees,WindSpeedMPH,WindSpeedGustMPH,Humidity,HourlyPrecipIn,Conditions,Clouds,dailyrainin,SoftwareType,DateUTC
2013-04-29 00:00:00,56.8,46.0,29.60,NW,304,6.0,7.0,67,0.00,,SKC,0.00,VWS V14.01,2013-04-29 05:00:00,
2013-04-29 00:03:00,56.8,46.0,29.59,NW,304,3.0,4.0,67,0.00,,SKC,0.00,VWS V14.01,2013-04-29 05:03:00,
2013-04-29 00:08:00,56.7,46.3,29.60,NW,304,4.0,6.0,68,0.00,,SKC,0.00,VWS V14.01,2013-04-29 05:08:00,
2013-04-29 00:13:00,56.5,46.1,29.60,NW,304,6.0,7.0,68,0.00,,SKC,0.00,VWS V14.01,2013-04-29 05:13:00,
2013-04-29 00:18:00,56.3,45.9,29.60,NW,305,5.0,7.0,68,0.00,,SKC,0.00,VWS V14.01,2013-04-29 05:18:00,
2013-04-29 00:23:00,56.1,46.1,29.60,NW,308,1.0,7.0,69,0.00,,SKC,0.00,VWS V14.01,2013-04-29 05:23:00,
2013-04-29 00:28:00,55.9,45.9,29.60,NW,308,5.0,7.0,69,0.00,,SKC,0.00,VWS V14.01,2013-04-29 05:28:00,
2013-04-29 00:30:00,55.7,46.1,29.60,NW,308,1.0,7.0,70,0.00,,SKC,0.00,VWS V14.01,2013-04-29 05:30:00,
2013-04-29 00:33:00,55.7,46.1,29.60,NW,308,2.0,7.0,70,0.00,,SKC,0.00,VWS V14.01,2013-04-29 05:33:00,
2013-04-29 00:38:00,55.6,46.0,29.61,NW,308,5.0,7.0,70,0.00,,SKC,0.00,VWS V14.01,2013-04-29 05:38:00,
2013-04-29 00:43:00,55.5,45.9,29.61,NW,308,4.0,7.0,70,0.00,,SKC,0.00,VWS V14.01,2013-04-29 05:43:00,
2013-04-29 00:48:00,55.3,45.7,29.61,NW,308,6.0,7.0,70,0.00,,SKC,0.00,VWS V14.01,2013-04-29 05:48:00,
2013-04-29 00:53:00,55.2,46.0,29.61,NW,308,5.0,7.0,71,0.00,,SKC,0.00,VWS V14.01,2013-04-29 05:53:00,
2013-04-29 00:58:00,55.0,45.8,29.62,NW,308,5.0,7.0,71,0.00,,SKC,0.00,VWS V14.01,2013-04-29 05:58:00,
2013-04-29 01:00:00,54.9,46.1,29.62,NW,310,5.0,8.0,72,0.00,,SKC,0.00,VWS V14.01,2013-04-29 06:00:00,
2013-04-29 01:03:00,55.0,45.8,29.62,NW,310,4.0,8.0,71,0.00,,SKC,0.00,VWS V14.01,2013-04-29 06:03:00,
2013-04-29 01:08:00,54.9,46.1,29.62,NW,310,5.0,6.0,72,0.00,,SKC,0.00,VWS V14.01,2013-04-29 06:08:00,
2013-04-29 01:13:00,54.8,46.0,29.62,NW,310,2.0,6.0,72,0.00,,SKC,0.00,VWS V14.01,2013-04-29 06:13:00,
2013-04-29 01:18:00,54.8,46.0,29.62,NW,310,1.0,6.0,72,0.00,,SKC,0.00,VWS V14.01,2013-04-29 06:18:00,
2013-04-29 01:23:00,54.7,45.9,29.62,NW,309,3.0,7.0,72,0.00,,SKC,0.00,VWS V14.01,2013-04-29 06:23:00,
2013-04-29 01:28:00,54.6,45.8,29.63,NW,310,5.0,7.0,72,0.00,,SKC,0.00,VWS V14.01,2013-04-29 06:28:00,
2013-04-29 01:30:00,54.5,46.0,29.63,NW,311,2.0,8.0,73,0.00,,SKC,0.00,VWS V14.01,2013-04-29 06:30:00,
2013-04-29 01:33:00,54.5,45.7,29.62,NW,311,6.0,7.0,72,0.00,,SKC,0.00,VWS V14.01,2013-04-29 06:33:00,
2013-04-29 01:38:00,54.4,45.9,29.63,NW,311,2.0,7.0,73,0.00,,SKC,0.00,VWS V14.01,2013-04-29 06:38:00,
2013-04-29 01:44:00,54.3,45.8,29.63,NW,313,4.0,8.0,73,0.00,,SKC,0.00,VWS V14.01,2013-04-29 06:44:00,
2013-04-29 01:49:00,54.1,45.7,29.63,NW,313,5.0,8.0,73,0.00,,SKC,0.00,VWS V14.01,2013-04-29 06:49:00,
2013-04-29 01:54:00,53.9,45.5,29.63,NW,313,5.0,8.0,73,0.00,,SKC,0.00,VWS V14.01,2013-04-29 06:54:00,
2013-04-29 01:59:00,53.7,45.6,29.63,NW,313,5.0,8.0,74,0.00,,SKC,0.00,VWS V14.01,2013-04-29 06:59:00,
2013-04-29 02:00:00,53.4,45.3,29.63,NW,317,5.0,10.0,74,0.00,,SKC,0.00,VWS V14.01,2013-04-29 07:00:00,
2013-04-29 02:04:00,53.5,45.4,29.63,NW,317,6.0,10.0,74,0.00,,SKC,0.00,VWS V14.01,2013-04-29 07:04:00,
2013-04-29 02:09:00,53.3,45.2,29.63,NW,319,6.0,8.0,74,0.00,,SKC,0.00,VWS V14.01,2013-04-29 07:09:00,
2013-04-29 02:14:00,53.2,45.1,29.63,NW,319,5.0,8.0,74,0.00,,SKC,0.00,VWS V14.01,2013-04-29 07:14:00,
2013-04-29 02:19:00,53.0,45.0,29.63,NW,319,7.0,9.0,74,0.00,,SKC,0.00,VWS V14.01,2013-04-29 07:19:00,
2013-04-29 02:24:00,52.8,44.8,29.64,NW,320,8.0,9.0,74,0.00,,SKC,0.00,VWS V14.01,2013-04-29 07:24:00,
2013-04-29 02:29:00,52.6,44.6,29.64,NW,317,6.0,9.0,74,0.00,,SKC,0.00,VWS V14.01,2013-04-29 07:29:00,
2013-04-29 02:30:00,52.3,43.9,29.64,NW,319,5.0,10.0,73,0.00,,SKC,0.00,VWS V14.01,2013-04-29 07:30:00,
2013-04-29 02:34:00,52.4,44.0,29.64,NW,317,5.0,9.0,73,0.00,,SKC,0.00,VWS V14.01,2013-04-29 07:34:00,
2013-04-29 02:39:00,52.2,43.8,29.64,NW,322,7.0,10.0,73,0.00,,SKC,0.00,VWS V14.01,2013-04-29 07:39:00,
2013-04-29 02:44:00,52.1,43.7,29.64,NW,321,7.0,12.0,73,0.00,,SKC,0.00,VWS V14.01,2013-04-29 07:44:00,
2013-04-29 02:49:00,51.9,43.2,29.64,NW,319,8.0,12.0,72,0.00,,SKC,0.00,VWS V14.01,2013-04-29 07:49:00,
2013-04-29 02:54:00,51.8,43.1,29.64,NW,321,7.0,12.0,72,0.00,,SKC,0.00,VWS V14.01,2013-04-29 07:54:00,
2013-04-29 02:59:00,51.6,42.5,29.64,NW,323,5.0,12.0,71,0.00,,SKC,0.00,VWS V14.01,2013-04-29 07:59:00,
2013-04-29 03:00:00,51.4,42.0,29.64,NNW,327,9.0,14.0,70,0.00,,SKC,0.00,VWS V14.01,2013-04-29 08:00:00,
2013-04-29 03:04:00,51.4,42.0,29.64,NW,324,7.0,14.0,70,0.00,,SKC,0.00,VWS V14.01,2013-04-29 08:04:00,
2013-04-29 03:09:00,51.3,41.5,29.64,NW,324,7.0,9.0,69,0.00,,SKC,0.00,VWS V14.01,2013-04-29 08:09:00,
2013-04-29 03:14:00,51.1,40.9,29.64,NNW,329,4.0,9.0,68,0.00,,SKC,0.00,VWS V14.01,2013-04-29 08:14:00,
2013-04-29 03:19:00,50.9,40.7,29.65,North,355,2.0,9.0,68,0.00,,SKC,0.00,VWS V14.01,2013-04-29 08:19:00,
2013-04-29 03:24:00,50.7,40.5,29.65,North,355,1.0,9.0,68,0.00,,SKC,0.00,VWS V14.01,2013-04-29 08:24:00,
2013-04-29 03:29:00,50.5,40.3,29.65,North,355,0.0,9.0,68,0.00,,SKC,0.00,VWS V14.01,2013-04-29 08:29:00,
2013-04-29 03:30:00,50.1,40.0,29.65,North,351,1.0,9.0,68,0.00,,SKC,0.00,VWS V14.01,2013-04-29 08:30:00,
2013-04-29 03:34:00,50.2,40.1,29.65,North,355,0.0,9.0,68,0.00,,SKC,0.00,VWS V14.01,2013-04-29 08:34:00,
2013-04-29 03:39:00,49.9,39.8,29.65,North,350,1.0,5.0,68,0.00,,SKC,0.00,VWS V14.01,2013-04-29 08:39:00,
2013-04-29 03:44:00,49.6,39.5,29.66,North,350,0.0,5.0,68,0.00,,SKC,0.00,VWS V14.01,2013-04-29 08:44:00,
2013-04-29 03:49:00,49.4,39.3,29.66,North,350,5.0,5.0,68,0.00,,SKC,0.00,VWS V14.01,2013-04-29 08:49:00,
2013-04-29 03:54:00,49.2,39.5,29.66,North,350,0.0,5.0,69,0.00,,SKC,0.00,VWS V14.01,2013-04-29 08:54:00,
2013-04-29 03:59:00,48.9,39.2,29.66,North,350,0.0,5.0,69,0.00,,SKC,0.00,VWS V14.01,2013-04-29 08:59:00,
2013-04-29 04:00:00,48.6,38.9,29.67,North,350,0.0,5.0,69,0.00,,SKC,0.00,VWS V14.01,2013-04-29 09:00:00,
2013-04-29 04:04:00,48.7,39.0,29.67,North,350,0.0,5.0,69,0.00,,SKC,0.00,VWS V14.01,2013-04-29 09:04:00,
2013-04-29 04:09:00,48.5,38.8,29.67,North,350,0.0,2.0,69,0.00,,SKC,0.00,VWS V14.01,2013-04-29 09:09:00,
2013-04-29 04:14:00,48.3,38.6,29.67,North,350,1.0,4.0,69,0.00,,SKC,0.00,VWS V14.01,2013-04-29 09:14:00,
2013-04-29 04:19:00,48.1,38.4,29.67,North,350,0.0,4.0,69,0.00,,SKC,0.00,VWS V14.01,2013-04-29 09:19:00,
2013-04-29 04:24:00,47.9,37.9,29.67,North,350,0.0,4.0,68,0.00,,SKC,0.00,VWS V14.01,2013-04-29 09:24:00,
2013-04-29 04:29:00,47.8,37.8,29.68,North,350,1.0,4.0,68,0.00,,SKC,0.00,VWS V14.01,2013-04-29 09:29:00,
2013-04-29 04:30:00,47.5,37.1,29.68,North,350,0.0,5.0,67,0.00,,SKC,0.00,VWS V14.01,2013-04-29 09:30:00,
2013-04-29 04:34:00,47.6,37.6,29.68,North,350,1.0,5.0,68,0.00,,SKC,0.00,VWS V14.01,2013-04-29 09:34:00,
2013-04-29 04:39:00,47.4,37.0,29.68,North,350,1.0,5.0,67,0.00,,SKC,0.00,VWS V14.01,2013-04-29 09:39:00,
2013-04-29 04:44:00,47.1,36.7,29.68,North,350,2.0,6.0,67,0.00,,SKC,0.00,VWS V14.01,2013-04-29 09:44:00,
2013-04-29 04:50:00,46.9,36.5,29.68,North,350,5.0,6.0,67,0.00,,SKC,0.00,VWS V14.01,2013-04-29 09:50:00,
2013-04-29 04:55:00,46.8,36.0,29.68,NNW,348,2.0,6.0,66,0.00,,SKC,0.00,VWS V14.01,2013-04-29 09:55:00,
2013-04-29 05:00:00,46.6,35.9,29.69,NNW,348,1.0,6.0,66,0.00,,SKC,0.00,VWS V14.01,2013-04-29 10:00:00,
2013-04-29 05:05:00,46.4,35.3,29.69,NNW,348,1.0,6.0,65,0.00,,SKC,0.00,VWS V14.01,2013-04-29 10:05:00,
2013-04-29 05:10:00,46.3,35.2,29.68,NNW,348,2.0,5.0,65,0.00,,SKC,0.00,VWS V14.01,2013-04-29 10:10:00,
2013-04-29 05:15:00,46.1,35.0,29.68,NNW,348,3.0,5.0,65,0.00,,SKC,0.00,VWS V14.01,2013-04-29 10:15:00,
2013-04-29 05:20:00,45.8,34.7,29.68,NNW,347,1.0,7.0,65,0.00,,SKC,0.00,VWS V14.01,2013-04-29 10:20:00,
2013-04-29 05:25:00,45.6,34.9,29.68,NNW,347,5.0,7.0,66,0.00,,SKC,0.00,VWS V14.01,2013-04-29 10:25:00,
2013-04-29 05:30:00,45.4,34.3,29.68,NNW,347,2.0,7.0,65,0.00,,SKC,0.00,VWS V14.01,2013-04-29 10:30:00,
2013-04-29 05:35:00,45.2,34.2,29.68,NNW,347,4.0,7.0,65,0.00,,SKC,0.00,VWS V14.01,2013-04-29 10:35:00,
2013-04-29 05:40:00,45.0,34.0,29.68,NNW,347,3.0,4.0,65,0.00,,SKC,0.00,VWS V14.01,2013-04-29 10:40:00,
2013-04-29 05:45:00,44.9,33.9,29.68,NNW,347,4.0,5.0,65,0.00,,SKC,0.00,VWS V14.01,2013-04-29 10:45:00,
2013-04-29 05:50:00,44.7,33.7,29.68,NNW,347,2.0,5.0,65,0.00,,SKC,0.00,VWS V14.01,2013-04-29 10:50:00,
2013-04-29 05:55:00,44.5,33.5,29.68,NNW,347,1.0,5.0,65,0.00,,SKC,0.00,VWS V14.01,2013-04-29 10:55:00,
2013-04-29 06:00:00,44.3,33.3,29.69,NNW,347,0.0,5.0,65,0.00,,SKC,0.00,VWS V14.01,2013-04-29 11:00:00,
2013-04-29 06:05:00,44.0,33.4,29.69,NNW,347,0.0,5.0,66,0.00,,SKC,0.00,VWS V14.01,2013-04-29 11:05:00,
2013-04-29 06:10:00,43.7,33.1,29.69,NNW,347,0.0,4.0,66,0.00,,SKC,0.00,VWS V14.01,2013-04-29 11:10:00,
2013-04-29 06:15:00,43.6,33.0,29.69,NNW,347,0.0,5.0,66,0.00,,SKC,0.00,VWS V14.01,2013-04-29 11:15:00,
2013-04-29 06:20:00,43.5,32.9,29.69,NNW,347,1.0,5.0,66,0.00,,SKC,0.00,VWS V14.01,2013-04-29 11:20:00,
2013-04-29 06:25:00,43.5,32.9,29.69,NNW,347,0.0,5.0,66,0.00,,SKC,0.00,VWS V14.01,2013-04-29 11:25:00,
2013-04-29 06:30:00,43.4,32.8,29.69,NNW,347,2.0,5.0,66,0.00,,SKC,0.00,VWS V14.01,2013-04-29 11:30:00,
2013-04-29 06:35:00,43.5,32.9,29.69,NNW,347,3.0,5.0,66,0.00,,SKC,0.00,VWS V14.01,2013-04-29 11:35:00,
2013-04-29 06:40:00,43.6,33.4,29.69,NNW,347,2.0,5.0,67,0.00,,SKC,0.00,VWS V14.01,2013-04-29 11:40:00,
2013-04-29 06:45:00,43.7,33.1,29.69,NNW,347,4.0,6.0,66,0.00,,SKC,0.00,VWS V14.01,2013-04-29 11:45:00,
2013-04-29 06:50:00,43.8,33.6,29.69,NNW,347,1.0,6.0,67,0.00,,SKC,0.00,VWS V14.01,2013-04-29 11:50:00,
2013-04-29 06:55:00,44.0,33.8,29.69,NNW,347,0.0,6.0,67,0.00,,SKC,0.00,VWS V14.01,2013-04-29 11:55:00,
2013-04-29 07:00:00,44.2,34.0,29.69,NNW,347,0.0,6.0,67,0.00,,SKC,0.00,VWS V14.01,2013-04-29 12:00:00,
2013-04-29 07:05:00,44.5,34.2,29.69,NNW,347,2.0,6.0,67,0.00,,SKC,0.00,VWS V14.01,2013-04-29 12:05:00,
2013-04-29 07:10:00,44.7,34.0,29.70,NNW,347,4.0,5.0,66,0.00,,SKC,0.00,VWS V14.01,2013-04-29 12:10:00,
2013-04-29 07:15:00,45.0,34.3,29.69,NNW,347,2.0,5.0,66,0.00,,SKC,0.00,VWS V14.01,2013-04-29 12:15:00,
2013-04-29 07:20:00,45.2,34.2,29.69,NNW,347,2.0,6.0,65,0.00,,SKC,0.00,VWS V14.01,2013-04-29 12:20:00,
2013-04-29 07:25:00,45.6,34.5,29.69,NNW,347,2.0,6.0,65,0.00,,SKC,0.00,VWS V14.01,2013-04-29 12:25:00,
2013-04-29 07:30:00,45.9,34.4,29.69,NNW,344,1.0,8.0,64,0.00,,SKC,0.00,VWS V14.01,2013-04-29 12:30:00,
2013-04-29 07:35:00,46.4,35.3,29.69,NNW,344,2.0,8.0,65,0.00,,SKC,0.00,VWS V14.01,2013-04-29 12:35:00,
2013-04-29 07:40:00,46.9,35.4,29.69,NNW,338,5.0,9.0,64,0.00,,SKC,0.00,VWS V14.01,2013-04-29 12:40:00,
2013-04-29 07:45:00,47.5,35.1,29.69,NNW,334,5.0,9.0,62,0.00,,SKC,0.00,VWS V14.01,2013-04-29 12:45:00,
2013-04-29 07:51:00,48.2,35.8,29.69,NNW,336,2.0,9.0,62,0.00,,SKC,0.00,VWS V14.01,2013-04-29 12:51:00,
2013-04-29 07:56:00,48.7,35.5,29.68,NNW,333,7.0,9.0,60,0.00,,SKC,0.00,VWS V14.01,2013-04-29 12:56:00,
2013-04-29 08:00:00,49.6,35.9,29.68,NNW,333,5.0,9.0,59,0.00,,SKC,0.00,VWS V14.01,2013-04-29 13:00:00,
2013-04-29 08:01:00,49.2,35.9,29.69,NNW,335,2.0,9.0,60,0.00,,SKC,0.00,VWS V14.01,2013-04-29 13:01:00,
2013-04-29 08:06:00,49.5,36.2,29.68,NNW,333,5.0,9.0,60,0.00,,SKC,0.00,VWS V14.01,2013-04-29 13:06:00,
2013-04-29 08:11:00,50.1,35.5,29.68,North,355,2.0,9.0,57,0.00,,SKC,0.00,VWS V14.01,2013-04-29 13:11:00,
2013-04-29 08:16:00,50.4,35.3,29.68,North,355,0.0,9.0,56,0.00,,SKC,0.00,VWS V14.01,2013-04-29 13:16:00,
2013-04-29 08:21:00,50.9,34.9,29.68,North,5,1.0,9.0,54,0.00,,SKC,0.00,VWS V14.01,2013-04-29 13:21:00,
2013-04-29 08:26:00,51.2,35.6,29.68,North,360,5.0,9.0,55,0.00,,SKC,0.00,VWS V14.01,2013-04-29 13:26:00,
2013-04-29 08:30:00,52.0,35.9,29.68,North,360,6.0,9.0,54,0.00,,SKC,0.00,VWS V14.01,2013-04-29 13:30:00,
2013-04-29 08:31:00,51.4,35.8,29.68,North,355,1.0,9.0,55,0.00,,SKC,0.00,VWS V14.01,2013-04-29 13:31:00,
2013-04-29 08:36:00,52.0,35.9,29.68,North,360,6.0,9.0,54,0.00,,SKC,0.00,VWS V14.01,2013-04-29 13:36:00,
2013-04-29 08:41:00,51.9,35.8,29.68,North,5,0.0,6.0,54,0.00,,SKC,0.00,VWS V14.01,2013-04-29 13:41:00,
2013-04-29 08:46:00,52.1,35.5,29.68,North,5,2.0,6.0,53,0.00,,SKC,0.00,VWS V14.01,2013-04-29 13:46:00,
2013-04-29 08:51:00,52.3,35.7,29.68,North,5,0.0,6.0,53,0.00,,SKC,0.00,VWS V14.01,2013-04-29 13:51:00,
2013-04-29 08:56:00,52.7,36.1,29.68,North,5,4.0,6.0,53,0.00,,SKC,0.00,VWS V14.01,2013-04-29 13:56:00,
2013-04-29 09:00:00,53.2,35.6,29.67,North,360,5.0,7.0,51,0.00,,SKC,0.00,VWS V14.01,2013-04-29 14:00:00,
2013-04-29 09:01:00,53.0,35.9,29.67,North,5,2.0,6.0,52,0.00,,SKC,0.00,VWS V14.01,2013-04-29 14:01:00,
2013-04-29 09:06:00,53.2,35.6,29.67,North,360,3.0,5.0,51,0.00,,SKC,0.00,VWS V14.01,2013-04-29 14:06:00,
2013-04-29 09:11:00,53.5,35.3,29.67,North,10,3.0,6.0,50,0.00,,SKC,0.00,VWS V14.01,2013-04-29 14:11:00,
2013-04-29 09:16:00,53.5,35.3,29.67,North,10,5.0,6.0,50,0.00,,SKC,0.00,VWS V14.01,2013-04-29 14:16:00,
2013-04-29 09:21:00,53.5,35.3,29.67,NNE,12,4.0,7.0,50,0.00,,SKC,0.00,VWS V14.01,2013-04-29 14:21:00,
2013-04-29 09:26:00,53.6,35.4,29.67,NNE,15,0.0,7.0,50,0.00,,SKC,0.00,VWS V14.01,2013-04-29 14:26:00,
2013-04-29 09:30:00,54.5,35.8,29.66,NNE,19,0.0,7.0,49,0.00,,SKC,0.00,VWS V14.01,2013-04-29 14:30:00,
2013-04-29 09:31:00,54.1,36.4,29.67,NNE,15,1.0,7.0,51,0.00,,SKC,0.00,VWS V14.01,2013-04-29 14:31:00,
2013-04-29 09:36:00,54.5,35.8,29.66,NNE,19,0.0,0.0,49,0.00,,SKC,0.00,VWS V14.01,2013-04-29 14:36:00,
2013-04-29 09:41:00,55.0,36.2,29.66,NNE,19,1.0,5.0,49,0.00,,SKC,0.00,VWS V14.01,2013-04-29 14:41:00,
2013-04-29 09:46:00,55.6,36.2,29.66,NNE,19,0.0,5.0,48,0.00,,SKC,0.00,VWS V14.01,2013-04-29 14:46:00,
2013-04-29 09:51:00,56.0,36.6,29.65,NNE,19,0.0,5.0,48,0.00,,SKC,0.00,VWS V14.01,2013-04-29 14:51:00,
2013-04-29 09:56:00,56.4,36.4,29.65,NNE,19,0.0,5.0,47,0.00,,SKC,0.00,VWS V14.01,2013-04-29 14:56:00,
2013-04-29 10:00:00,56.8,35.7,29.65,NE,36,4.0,7.0,45,0.00,,SKC,0.00,VWS V14.01,2013-04-29 15:00:00,
2013-04-29 10:01:00,56.8,36.3,29.65,NNE,19,1.0,5.0,46,0.00,,SKC,0.00,VWS V14.01,2013-04-29 15:01:00,
2013-04-29 10:06:00,56.8,35.7,29.65,NE,36,4.0,4.0,45,0.00,,SKC,0.00,VWS V14.01,2013-04-29 15:06:00,
2013-04-29 10:11:00,56.6,35.0,29.65,NE,36,4.0,5.0,44,0.00,,SKC,0.00,VWS V14.01,2013-04-29 15:11:00,
2013-04-29 10:16:00,56.2,35.2,29.65,NE,43,6.0,6.0,45,0.00,,SKC,0.00,VWS V14.01,2013-04-29 15:16:00,
2013-04-29 10:21:00,55.9,34.9,29.64,NE,50,4.0,8.0,45,0.00,,SKC,0.00,VWS V14.01,2013-04-29 15:21:00,
2013-04-29 10:26:00,56.1,35.6,29.64,NE,50,4.0,8.0,46,0.00,,SKC,0.00,VWS V14.01,2013-04-29 15:26:00,
2013-04-29 10:30:00,57.8,37.2,29.64,NE,50,0.0,8.0,46,0.00,,SKC,0.00,VWS V14.01,2013-04-29 15:30:00,
2013-04-29 10:32:00,56.9,36.9,29.64,NE,50,0.0,8.0,47,0.00,,SKC,0.00,VWS V14.01,2013-04-29 15:32:00,
2013-04-29 10:37:00,57.9,36.7,29.64,NE,50,0.0,0.0,45,0.00,,SKC,0.00,VWS V14.01,2013-04-29 15:37:00,
2013-04-29 10:42:00,59.0,37.7,29.64,NE,50,0.0,0.0,45,0.00,,SKC,0.00,VWS V14.01,2013-04-29 15:42:00,
2013-04-29 10:47:00,56.9,35.8,29.64,NE,50,1.0,4.0,45,0.00,,SKC,0.00,VWS V14.01,2013-04-29 15:47:00,
2013-04-29 10:52:00,56.4,35.9,29.65,NE,50,0.0,4.0,46,0.00,,SKC,0.00,VWS V14.01,2013-04-29 15:52:00,
2013-04-29 10:57:00,56.5,35.4,29.64,NE,50,0.0,4.0,45,0.00,,SKC,0.00,VWS V14.01,2013-04-29 15:57:00,
2013-04-29 11:00:00,57.6,36.4,29.64,NE,50,0.0,4.0,45,0.00,,SKC,0.00,VWS V14.01,2013-04-29 16:00:00,
2013-04-29 11:02:00,57.2,36.1,29.64,NE,50,0.0,4.0,45,0.00,,SKC,0.00,VWS V14.01,2013-04-29 16:02:00,
2013-04-29 11:07:00,57.8,36.6,29.64,NE,50,0.0,0.0,45,0.00,,SKC,0.00,VWS V14.01,2013-04-29 16:07:00,
2013-04-29 11:12:00,59.0,36.6,29.63,NE,50,0.0,1.0,43,0.00,,SKC,0.00,VWS V14.01,2013-04-29 16:12:00,
2013-04-29 11:17:00,60.4,36.6,29.63,NE,50,0.0,1.0,41,0.00,,SKC,0.00,VWS V14.01,2013-04-29 16:17:00,
2013-04-29 11:22:00,61.4,36.9,29.63,NE,50,0.0,1.0,40,0.00,,SKC,0.00,VWS V14.01,2013-04-29 16:22:00,
2013-04-29 11:27:00,60.9,37.1,29.62,NE,50,0.0,1.0,41,0.00,,SKC,0.00,VWS V14.01,2013-04-29 16:27:00,
2013-04-29 11:30:00,59.8,36.1,29.62,NE,50,0.0,1.0,41,0.00,,SKC,0.00,VWS V14.01,2013-04-29 16:30:00,
2013-04-29 11:32:00,60.4,36.6,29.63,NE,50,0.0,1.0,41,0.00,,SKC,0.00,VWS V14.01,2013-04-29 16:32:00,
2013-04-29 11:37:00,59.6,35.9,29.63,NE,50,0.0,1.0,41,0.00,,SKC,0.00,VWS V14.01,2013-04-29 16:37:00,
2013-04-29 11:42:00,59.5,36.4,29.62,NE,50,0.0,1.0,42,0.00,,SKC,0.00,VWS V14.01,2013-04-29 16:42:00,
2013-04-29 11:47:00,59.0,36.0,29.62,NE,50,4.0,5.0,42,0.00,,SKC,0.00,VWS V14.01,2013-04-29 16:47:00,
2013-04-29 11:52:00,58.7,35.7,29.62,NE,50,2.0,5.0,42,0.00,,SKC,0.00,VWS V14.01,2013-04-29 16:52:00,
2013-04-29 11:57:00,59.0,36.0,29.62,NE,50,0.0,5.0,42,0.00,,SKC,0.00,VWS V14.01,2013-04-29 16:57:00,
2013-04-29 12:00:00,61.7,37.2,29.62,NE,50,0.0,5.0,40,0.00,,SKC,0.00,VWS V14.01,2013-04-29 17:00:00,
2013-04-29 12:02:00,60.4,36.6,29.62,NE,50,0.0,5.0,41,0.00,,SKC,0.00,VWS V14.01,2013-04-29 17:02:00,
2013-04-29 12:07:00,62.2,37.6,29.62,NE,50,0.0,0.0,40,0.00,,SKC,0.00,VWS V14.01,2013-04-29 17:07:00,
2013-04-29 12:12:00,64.0,38.6,29.62,NE,50,0.0,0.0,39,0.00,,SKC,0.00,VWS V14.01,2013-04-29 17:12:00,
2013-04-29 12:17:00,65.6,38.7,29.61,NE,50,0.0,0.0,37,0.00,,SKC,0.00,VWS V14.01,2013-04-29 17:17:00,
2013-04-29 12:22:00,66.9,38.4,29.61,NE,50,0.0,1.0,35,0.00,,SKC,0.00,VWS V14.01,2013-04-29 17:22:00,
2013-04-29 12:27:00,68.0,38.6,29.61,NE,50,0.0,1.0,34,0.00,,SKC,0.00,VWS V14.01,2013-04-29 17:27:00,
2013-04-29 12:30:00,69.4,39.1,29.60,NE,50,0.0,1.0,33,0.00,,SKC,0.00,VWS V14.01,2013-04-29 17:30:00,
2013-04-29 12:32:00,68.9,38.6,29.60,NE,50,0.0,1.0,33,0.00,,SKC,0.00,VWS V14.01,2013-04-29 17:32:00,
2013-04-29 12:38:00,69.7,39.3,29.60,NE,50,0.0,0.0,33,0.00,,SKC,0.00,VWS V14.01,2013-04-29 17:38:00,
2013-04-29 12:43:00,70.1,39.7,29.60,NE,50,0.0,2.0,33,0.00,,SKC,0.00,VWS V14.01,2013-04-29 17:43:00,
2013-04-29 12:48:00,67.2,37.9,29.60,NE,50,1.0,2.0,34,0.00,,SKC,0.00,VWS V14.01,2013-04-29 17:48:00,
2013-04-29 12:53:00,65.5,36.4,29.60,NE,50,0.0,2.0,34,0.00,,SKC,0.00,VWS V14.01,2013-04-29 17:53:00,
2013-04-29 12:58:00,65.4,39.2,29.59,NE,50,0.0,2.0,38,0.00,,SKC,0.00,VWS V14.01,2013-04-29 17:58:00,
2013-04-29 13:00:00,68.5,39.0,29.59,NE,50,0.0,2.0,34,0.00,,SKC,0.00,VWS V14.01,2013-04-29 18:00:00,
2013-04-29 13:03:00,67.2,38.7,29.59,NE,50,0.0,2.0,35,0.00,,SKC,0.00,VWS V14.01,2013-04-29 18:03:00,
2013-04-29 13:08:00,69.1,39.6,29.58,NE,50,0.0,1.0,34,0.00,,SKC,0.00,VWS V14.01,2013-04-29 18:08:00,
2013-04-29 13:13:00,70.7,40.2,29.58,NE,50,0.0,1.0,33,0.00,,SKC,0.00,VWS V14.01,2013-04-29 18:13:00,
2013-04-29 13:18:00,71.9,41.3,29.58,NE,50,0.0,1.0,33,0.00,,SKC,0.00,VWS V14.01,2013-04-29 18:18:00,
2013-04-29 13:23:00,69.4,37.5,29.58,NE,50,0.0,1.0,31,0.00,,SKC,0.00,VWS V14.01,2013-04-29 18:23:00,
2013-04-29 13:28:00,67.7,38.3,29.58,NE,50,0.0,1.0,34,0.00,,SKC,0.00,VWS V14.01,2013-04-29 18:28:00,
2013-04-29 13:30:00,68.9,39.4,29.58,NE,50,0.0,1.0,34,0.00,,SKC,0.00,VWS V14.01,2013-04-29 18:30:00,
2013-04-29 13:33:00,67.9,39.3,29.58,NE,50,0.0,1.0,35,0.00,,SKC,0.00,VWS V14.01,2013-04-29 18:33:00,
2013-04-29 13:38:00,69.5,39.9,29.57,NE,50,0.0,0.0,34,0.00,,SKC,0.00,VWS V14.01,2013-04-29 18:38:00,
2013-04-29 13:43:00,68.9,39.4,29.57,NE,50,0.0,2.0,34,0.00,,SKC,0.00,VWS V14.01,2013-04-29 18:43:00,
2013-04-29 13:48:00,68.3,38.9,29.58,NE,50,1.0,2.0,34,0.00,,SKC,0.00,VWS V14.01,2013-04-29 18:48:00,
2013-04-29 13:53:00,68.0,39.3,29.57,NE,50,0.0,2.0,35,0.00,,SKC,0.00,VWS V14.01,2013-04-29 18:53:00,
2013-04-29 13:58:00,68.9,39.4,29.57,NE,50,0.0,2.0,34,0.00,,SKC,0.00,VWS V14.01,2013-04-29 18:58:00,
2013-04-29 14:00:00,69.4,39.8,29.57,NE,50,0.0,2.0,34,0.00,,SKC,0.00,VWS V14.01,2013-04-29 19:00:00,
2013-04-29 14:03:00,69.2,39.7,29.57,NE,50,0.0,2.0,34,0.00,,SKC,0.00,VWS V14.01,2013-04-29 19:03:00,
2013-04-29 14:08:00,69.7,39.3,29.57,NE,50,0.0,0.0,33,0.00,,SKC,0.00,VWS V14.01,2013-04-29 19:08:00,
2013-04-29 14:13:00,70.3,39.1,29.56,NE,50,0.0,1.0,32,0.00,,SKC,0.00,VWS V14.01,2013-04-29 19:13:00,
2013-04-29 14:18:00,71.3,40.0,29.56,NE,50,0.0,1.0,32,0.00,,SKC,0.00,VWS V14.01,2013-04-29 19:18:00,
2013-04-29 14:23:00,71.4,40.0,29.55,NE,50,0.0,1.0,32,0.00,,SKC,0.00,VWS V14.01,2013-04-29 19:23:00,
2013-04-29 14:28:00,70.9,41.2,29.55,NE,50,0.0,5.0,34,0.00,,SKC,0.00,VWS V14.01,2013-04-29 19:28:00,
2013-04-29 14:30:00,71.2,40.7,29.55,NE,50,0.0,5.0,33,0.00,,SKC,0.00,VWS V14.01,2013-04-29 19:30:00,
2013-04-29 14:33:00,71.5,40.9,29.55,NE,50,0.0,5.0,33,0.00,,SKC,0.00,VWS V14.01,2013-04-29 19:33:00,
2013-04-29 14:38:00,70.9,40.4,29.55,NE,50,0.0,2.0,33,0.00,,SKC,0.00,VWS V14.01,2013-04-29 19:38:00,
2013-04-29 14:44:00,71.0,40.5,29.55,NE,50,0.0,2.0,33,0.00,,SKC,0.00,VWS V14.01,2013-04-29 19:44:00,
2013-04-29 14:49:00,71.7,41.1,29.54,NE,50,1.0,6.0,33,0.00,,SKC,0.00,VWS V14.01,2013-04-29 19:49:00,
2013-04-29 14:54:00,72.9,42.1,29.54,NE,50,0.0,6.0,33,0.00,,SKC,0.00,VWS V14.01,2013-04-29 19:54:00,
2013-04-29 14:59:00,73.8,40.5,29.53,NE,50,0.0,6.0,30,0.00,,SKC,0.00,VWS V14.01,2013-04-29 19:59:00,
2013-04-29 15:00:00,73.7,41.2,29.53,NE,50,0.0,6.0,31,0.00,,SKC,0.00,VWS V14.01,2013-04-29 20:00:00,
2013-04-29 15:04:00,73.5,41.0,29.53,NE,50,1.0,6.0,31,0.00,,SKC,0.00,VWS V14.01,2013-04-29 20:04:00,
2013-04-29 15:09:00,74.1,41.6,29.53,NE,50,0.0,0.0,31,0.00,,SKC,0.00,VWS V14.01,2013-04-29 20:09:00,
2013-04-29 15:14:00,74.2,40.8,29.53,NE,50,0.0,1.0,30,0.00,,SKC,0.00,VWS V14.01,2013-04-29 20:14:00,
2013-04-29 15:19:00,74.6,42.8,29.52,NE,50,0.0,1.0,32,0.00,,SKC,0.00,VWS V14.01,2013-04-29 20:19:00,
2013-04-29 15:24:00,75.4,42.7,29.52,NE,50,0.0,1.0,31,0.00,,SKC,0.00,VWS V14.01,2013-04-29 20:24:00,
2013-04-29 15:29:00,76.3,41.7,29.51,NE,50,0.0,1.0,29,0.00,,SKC,0.00,VWS V14.01,2013-04-29 20:29:00,
2013-04-29 15:30:00,76.8,43.0,29.51,NE,50,0.0,1.0,30,0.00,,SKC,0.00,VWS V14.01,2013-04-29 20:30:00,
2013-04-29 15:34:00,76.9,42.3,29.51,NE,50,0.0,1.0,29,0.00,,SKC,0.00,VWS V14.01,2013-04-29 20:34:00,
2013-04-29 15:39:00,76.7,43.8,29.51,NE,50,0.0,0.0,31,0.00,,SKC,0.00,VWS V14.01,2013-04-29 20:39:00,
2013-04-29 15:44:00,76.2,41.7,29.51,NE,50,0.0,2.0,29,0.00,,SKC,0.00,VWS V14.01,2013-04-29 20:44:00,
2013-04-29 15:49:00,76.1,41.6,29.51,NE,50,0.0,2.0,29,0.00,,SKC,0.00,VWS V14.01,2013-04-29 20:49:00,
2013-04-29 15:54:00,76.1,41.6,29.50,NE,50,2.0,2.0,29,0.00,,SKC,0.00,VWS V14.01,2013-04-29 20:54:00,
2013-04-29 15:59:00,75.3,40.9,29.50,NE,50,0.0,2.0,29,0.00,,SKC,0.00,VWS V14.01,2013-04-29 20:59:00,
2013-04-29 16:00:00,74.8,41.3,29.50,NE,50,1.0,6.0,30,0.00,,SKC,0.00,VWS V14.01,2013-04-29 21:00:00,
2013-04-29 16:04:00,75.1,40.7,29.50,NE,50,1.0,5.0,29,0.00,,SKC,0.00,VWS V14.01,2013-04-29 21:04:00,
2013-04-29 16:09:00,73.6,40.3,29.50,NE,50,0.0,3.0,30,0.00,,SKC,0.00,VWS V14.01,2013-04-29 21:09:00,
2013-04-29 16:14:00,72.6,39.4,29.50,NE,50,0.0,5.0,30,0.00,,SKC,0.00,VWS V14.01,2013-04-29 21:14:00,
2013-04-29 16:19:00,72.4,39.2,29.50,NE,50,2.0,5.0,30,0.00,,SKC,0.00,VWS V14.01,2013-04-29 21:19:00,
2013-04-29 16:24:00,72.4,40.1,29.49,NE,50,1.0,5.0,31,0.00,,SKC,0.00,VWS V14.01,2013-04-29 21:24:00,
2013-04-29 16:29:00,72.4,37.5,29.49,NE,51,2.0,6.0,28,0.00,,SKC,0.00,VWS V14.01,2013-04-29 21:29:00,
2013-04-29 16:30:00,71.7,38.6,29.49,East,85,0.0,7.0,30,0.00,,SKC,0.00,VWS V14.01,2013-04-29 21:30:00,
2013-04-29 16:34:00,72.0,38.9,29.49,East,85,0.0,7.0,30,0.00,,SKC,0.00,VWS V14.01,2013-04-29 21:34:00,
2013-04-29 16:39:00,71.6,37.7,29.49,ESE,115,6.0,7.0,29,0.00,,SKC,0.00,VWS V14.01,2013-04-29 21:39:00,
2013-04-29 16:44:00,71.1,38.1,29.49,SE,142,7.0,12.0,30,0.00,,SKC,0.00,VWS V14.01,2013-04-29 21:44:00,
2013-04-29 16:49:00,69.8,37.0,29.48,SE,131,12.0,15.0,30,0.00,,SKC,0.00,VWS V14.01,2013-04-29 21:49:00,
2013-04-29 16:54:00,69.2,37.3,29.49,SSE,150,10.0,15.0,31,0.00,,SKC,0.00,VWS V14.01,2013-04-29 21:54:00,
2013-04-29 16:59:00,69.2,38.9,29.48,SE,144,3.0,15.0,33,0.00,,SKC,0.00,VWS V14.01,2013-04-29 21:59:00,
2013-04-29 17:00:00,69.8,39.4,29.48,SE,124,11.0,15.0,33,0.00,,SKC,0.00,VWS V14.01,2013-04-29 22:00:00,
2013-04-29 17:04:00,69.7,38.5,29.48,SE,142,7.0,15.0,32,0.00,,SKC,0.00,VWS V14.01,2013-04-29 22:04:00,
2013-04-29 17:09:00,69.8,39.4,29.48,ESE,115,7.0,11.0,33,0.00,,SKC,0.00,VWS V14.01,2013-04-29 22:09:00,
2013-04-29 17:14:00,69.4,39.1,29.48,SE,126,6.0,11.0,33,0.00,,SKC,0.00,VWS V14.01,2013-04-29 22:14:00,
2013-04-29 17:19:00,69.2,40.4,29.48,SE,138,8.0,11.0,35,0.00,,SKC,0.00,VWS V14.01,2013-04-29 22:19:00,
2013-04-29 17:25:00,68.1,40.9,29.49,SE,138,0.0,11.0,37,0.00,,SKC,0.00,VWS V14.01,2013-04-29 22:25:00,
2013-04-29 17:30:00,67.2,40.1,29.49,SE,138,6.0,11.0,37,0.00,,SKC,0.00,VWS V14.01,2013-04-29 22:30:00,
2013-04-29 17:35:00,67.4,40.9,29.48,SE,142,0.0,11.0,38,0.00,,SKC,0.00,VWS V14.01,2013-04-29 22:35:00,
2013-04-29 17:40:00,67.7,42.5,29.48,SE,146,6.0,10.0,40,0.00,,SKC,0.00,VWS V14.01,2013-04-29 22:40:00,
2013-04-29 17:45:00,68.3,43.1,29.48,SE,136,7.0,11.0,40,0.00,,SKC,0.00,VWS V14.01,2013-04-29 22:45:00,
2013-04-29 17:50:00,68.5,44.5,29.48,SE,136,0.0,11.0,42,0.00,,SKC,0.00,VWS V14.01,2013-04-29 22:50:00,
2013-04-29 17:55:00,68.2,44.9,29.48,SE,140,6.0,11.0,43,0.00,,SKC,0.00,VWS V14.01,2013-04-29 22:55:00,
2013-04-29 18:00:00,68.0,44.7,29.47,SSE,148,7.0,14.0,43,0.00,,SKC,0.00,VWS V14.01,2013-04-29 23:00:00,
2013-04-29 18:05:00,67.7,45.6,29.47,SE,144,0.0,14.0,45,0.00,,SKC,0.00,VWS V14.01,2013-04-29 23:05:00,
2013-04-29 18:10:00,67.8,45.7,29.47,SSE,148,4.0,12.0,45,0.00,,SKC,0.00,VWS V14.01,2013-04-29 23:10:00,
2013-04-29 18:15:00,66.7,45.8,29.47,SSE,147,0.0,12.0,47,0.00,,SKC,0.00,VWS V14.01,2013-04-29 23:15:00,
2013-04-29 18:20:00,65.8,46.1,29.47,SSE,147,2.0,12.0,49,0.00,,SKC,0.00,VWS V14.01,2013-04-29 23:20:00,
2013-04-29 18:25:00,65.6,47.0,29.47,SE,124,15.0,18.0,51,0.00,,SKC,0.00,VWS V14.01,2013-04-29 23:25:00,
2013-04-29 18:30:00,64.8,46.8,29.47,SSE,148,3.0,19.0,52,0.00,,SKC,0.00,VWS V14.01,2013-04-29 23:30:00,
2013-04-29 18:35:00,64.3,47.8,29.47,SSE,148,8.0,19.0,55,0.00,,SKC,0.00,VWS V14.01,2013-04-29 23:35:00,
2013-04-29 18:40:00,65.1,48.5,29.47,SE,146,9.0,11.0,55,0.00,,SKC,0.00,VWS V14.01,2013-04-29 23:40:00,
2013-04-29 18:45:00,66.0,49.4,29.46,SE,139,11.0,14.0,55,0.00,,SKC,0.00,VWS V14.01,2013-04-29 23:45:00,
2013-04-29 18:50:00,66.3,48.7,29.47,SE,146,5.0,14.0,53,0.00,,SKC,0.00,VWS V14.01,2013-04-29 23:50:00,
2013-04-29 18:55:00,65.9,48.8,29.47,SSE,148,7.0,14.0,54,0.00,,SKC,0.00,VWS V14.01,2013-04-29 23:55:00,
2013-04-29 19:00:00,65.6,48.5,29.47,SE,146,0.0,14.0,54,0.00,,SKC,0.00,VWS V14.01,2013-04-30 00:00:00,
2013-04-29 19:05:00,64.8,47.8,29.47,SSE,148,5.0,14.0,54,0.00,,SKC,0.00,VWS V14.01,2013-04-30 00:05:00,
2013-04-29 19:10:00,64.3,48.8,29.47,SSE,147,2.0,7.0,57,0.00,,SKC,0.00,VWS V14.01,2013-04-30 00:10:00,
2013-04-29 19:15:00,64.0,48.0,29.47,SSE,147,0.0,7.0,56,0.00,,SKC,0.00,VWS V14.01,2013-04-30 00:15:00,
2013-04-29 19:20:00,63.7,48.2,29.47,SSE,147,0.0,7.0,57,0.00,,SKC,0.00,VWS V14.01,2013-04-30 00:20:00,
2013-04-29 19:25:00,63.2,48.2,29.47,SSE,147,0.0,7.0,58,0.00,,SKC,0.00,VWS V14.01,2013-04-30 00:25:00,
2013-04-29 19:30:00,63.1,48.6,29.46,SSE,147,4.0,7.0,59,0.00,,SKC,0.00,VWS V14.01,2013-04-30 00:30:00,
2013-04-29 19:35:00,63.0,48.5,29.47,SSE,147,0.0,7.0,59,0.00,,SKC,0.00,VWS V14.01,2013-04-30 00:35:00,
2013-04-29 19:40:00,62.6,48.5,29.46,SSE,147,0.0,1.0,60,0.00,,SKC,0.00,VWS V14.01,2013-04-30 00:40:00,
2013-04-29 19:45:00,62.5,48.9,29.46,SSE,147,5.0,5.0,61,0.00,,SKC,0.00,VWS V14.01,2013-04-30 00:45:00,
2013-04-29 19:50:00,62.7,48.6,29.46,SSE,147,5.0,7.0,60,0.00,,SKC,0.00,VWS V14.01,2013-04-30 00:50:00,
2013-04-29 19:55:00,63.2,49.1,29.46,SE,146,8.0,9.0,60,0.00,,SKC,0.00,VWS V14.01,2013-04-30 00:55:00,
2013-04-29 20:00:00,63.6,48.6,29.45,SE,146,7.0,9.0,58,0.00,,SKC,0.00,VWS V14.01,2013-04-30 01:00:00,
2013-04-29 20:05:00,64.0,48.9,29.46,SE,146,7.0,9.0,58,0.00,,SKC,0.00,VWS V14.01,2013-04-30 01:05:00,
2013-04-29 20:10:00,64.4,48.8,29.46,SE,145,5.0,8.0,57,0.00,,SKC,0.00,VWS V14.01,2013-04-30 01:10:00,
2013-04-29 20:15:00,64.6,49.0,29.45,SE,146,7.0,8.0,57,0.00,,SKC,0.00,VWS V14.01,2013-04-30 01:15:00,
2013-04-29 20:21:00,64.7,49.1,29.45,SE,146,5.0,8.0,57,0.00,,SKC,0.00,VWS V14.01,2013-04-30 01:21:00,
2013-04-29 20:26:00,64.7,49.1,29.45,SE,146,3.0,8.0,57,0.00,,SKC,0.00,VWS V14.01,2013-04-30 01:26:00,
2013-04-29 20:30:00,64.4,49.3,29.45,SE,146,1.0,8.0,58,0.00,,SKC,0.00,VWS V14.01,2013-04-30 01:30:00,
2013-04-29 20:31:00,64.7,49.1,29.45,SE,146,0.0,8.0,57,0.00,,SKC,0.00,VWS V14.01,2013-04-30 01:31:00,
2013-04-29 20:36:00,64.4,48.8,29.45,SE,146,0.0,8.0,57,0.00,,SKC,0.00,VWS V14.01,2013-04-30 01:36:00,
2013-04-29 20:41:00,64.1,49.0,29.46,SE,145,5.0,5.0,58,0.00,,SKC,0.00,VWS V14.01,2013-04-30 01:41:00,
2013-04-29 20:46:00,63.9,49.3,29.45,SE,146,4.0,5.0,59,0.00,,SKC,0.00,VWS V14.01,2013-04-30 01:46:00,
2013-04-29 20:51:00,63.6,49.0,29.46,SE,146,0.0,5.0,59,0.00,,SKC,0.00,VWS V14.01,2013-04-30 01:51:00,
2013-04-29 20:56:00,63.1,49.0,29.46,SE,146,0.0,5.0,60,0.00,,SKC,0.00,VWS V14.01,2013-04-30 01:56:00,
2013-04-29 21:00:00,62.5,48.9,29.46,SE,146,0.0,5.0,61,0.00,,SKC,0.00,VWS V14.01,2013-04-30 02:00:00,
2013-04-29 21:01:00,62.7,48.6,29.46,SE,145,0.0,5.0,60,0.00,,SKC,0.00,VWS V14.01,2013-04-30 02:01:00,
2013-04-29 21:06:00,62.5,48.9,29.46,SE,145,0.0,5.0,61,0.00,,SKC,0.00,VWS V14.01,2013-04-30 02:06:00,
2013-04-29 21:11:00,62.2,48.6,29.46,SE,146,0.0,0.0,61,0.00,,SKC,0.00,VWS V14.01,2013-04-30 02:11:00,
2013-04-29 21:16:00,62.0,48.4,29.46,SE,145,0.0,0.0,61,0.00,,SKC,0.00,VWS V14.01,2013-04-30 02:16:00,
2013-04-29 21:21:00,61.7,48.1,29.45,SE,145,0.0,0.0,61,0.00,,SKC,0.00,VWS V14.01,2013-04-30 02:21:00,
2013-04-29 21:26:00,61.4,47.8,29.45,SE,146,0.0,0.0,61,0.00,,SKC,0.00,VWS V14.01,2013-04-30 02:26:00,
2013-04-29 21:30:00,60.7,48.0,29.45,SE,145,0.0,0.0,63,0.00,,SKC,0.00,VWS V14.01,2013-04-30 02:30:00,
2013-04-29 21:31:00,61.0,47.9,29.45,SE,146,0.0,0.0,62,0.00,,SKC,0.00,VWS V14.01,2013-04-30 02:31:00,
2013-04-29 21:36:00,60.8,48.1,29.45,SE,146,0.0,0.0,63,0.00,,SKC,0.00,VWS V14.01,2013-04-30 02:36:00,
2013-04-29 21:41:00,60.6,48.4,29.45,SE,145,0.0,0.0,64,0.00,,SKC,0.00,VWS V14.01,2013-04-30 02:41:00,
2013-04-29 21:46:00,60.4,48.2,29.45,SE,145,0.0,0.0,64,0.00,,SKC,0.00,VWS V14.01,2013-04-30 02:46:00,
2013-04-29 21:51:00,60.4,48.2,29.45,SE,146,0.0,0.0,64,0.00,,SKC,0.00,VWS V14.01,2013-04-30 02:51:00,
2013-04-29 21:56:00,60.4,48.2,29.45,SE,146,0.0,1.0,64,0.00,,SKC,0.00,VWS V14.01,2013-04-30 02:56:00,
2013-04-29 22:00:00,60.6,48.4,29.44,SE,145,0.0,1.0,64,0.00,,SKC,0.00,VWS V14.01,2013-04-30 03:00:00,
2013-04-29 22:01:00,60.6,48.4,29.45,SE,145,0.0,1.0,64,0.00,,SKC,0.00,VWS V14.01,2013-04-30 03:01:00,
2013-04-29 22:06:00,60.6,48.4,29.44,SE,145,0.0,0.0,64,0.00,,SKC,0.00,VWS V14.01,2013-04-30 03:06:00,
2013-04-29 22:11:00,60.3,48.9,29.44,SE,146,1.0,1.0,66,0.00,,SKC,0.00,VWS V14.01,2013-04-30 03:11:00,
2013-04-29 22:16:00,59.0,48.1,29.44,SE,146,0.0,1.0,67,0.00,,SKC,0.00,VWS V14.01,2013-04-30 03:16:00,
2013-04-29 22:21:00,58.2,48.1,29.44,SE,145,0.0,1.0,69,0.00,,SKC,0.00,VWS V14.01,2013-04-30 03:21:00,
2013-04-29 22:26:00,57.8,48.1,29.45,SE,146,0.0,1.0,70,0.00,,SKC,0.00,VWS V14.01,2013-04-30 03:26:00,
2013-04-29 22:30:00,57.7,48.4,29.45,SE,146,0.0,1.0,71,0.00,,SKC,0.00,VWS V14.01,2013-04-30 03:30:00,
2013-04-29 22:31:00,57.7,48.4,29.45,SE,146,0.0,1.0,71,0.00,,SKC,0.00,VWS V14.01,2013-04-30 03:31:00,
2013-04-29 22:36:00,57.7,48.4,29.45,SE,146,0.0,0.0,71,0.00,,SKC,0.00,VWS V14.01,2013-04-30 03:36:00,
2013-04-29 22:41:00,57.7,48.0,29.44,SE,145,0.0,0.0,70,0.00,,SKC,0.00,VWS V14.01,2013-04-30 03:41:00,
2013-04-29 22:47:00,57.7,48.0,29.44,SE,145,0.0,1.0,70,0.00,,SKC,0.00,VWS V14.01,2013-04-30 03:47:00,
2013-04-29 22:52:00,57.8,48.5,29.44,SE,146,2.0,5.0,71,0.00,,SKC,0.00,VWS V14.01,2013-04-30 03:52:00,
2013-04-29 22:57:00,58.0,48.7,29.44,SE,146,0.0,5.0,71,0.00,,SKC,0.00,VWS V14.01,2013-04-30 03:57:00,
2013-04-29 23:00:00,58.6,48.9,29.44,SE,146,4.0,5.0,70,0.00,,SKC,0.00,VWS V14.01,2013-04-30 04:00:00,
2013-04-29 23:01:00,58.2,48.8,29.44,SE,146,4.0,5.0,71,0.00,,SKC,0.00,VWS V14.01,2013-04-30 04:01:00,
2013-04-29 23:02:00,58.2,48.8,29.44,SE,145,4.0,5.0,71,0.00,,SKC,0.00,VWS V14.01,2013-04-30 04:02:00,
2013-04-29 23:03:00,58.3,49.0,29.44,SE,146,4.0,5.0,71,0.00,,SKC,0.00,VWS V14.01,2013-04-30 04:03:00,
2013-04-29 23:07:00,58.6,48.9,29.43,SE,146,2.0,4.0,70,0.00,,SKC,0.00,VWS V14.01,2013-04-30 04:07:00,
2013-04-29 23:11:00,59.0,49.2,29.44,SE,145,2.0,4.0,70,0.00,,SKC,0.00,VWS V14.01,2013-04-30 04:11:00,
2013-04-29 23:16:00,59.0,48.9,29.43,SE,145,3.0,4.0,69,0.00,,SKC,0.00,VWS V14.01,2013-04-30 04:16:00,
2013-04-29 23:21:00,59.0,48.9,29.42,SE,146,1.0,5.0,69,0.00,,SKC,0.00,VWS V14.01,2013-04-30 04:21:00,
2013-04-29 23:26:00,58.6,48.9,29.42,SE,146,5.0,5.0,70,0.00,,SKC,0.00,VWS V14.01,2013-04-30 04:26:00,
2013-04-29 23:30:00,58.2,49.2,29.42,SE,145,1.0,5.0,72,0.00,,SKC,0.00,VWS V14.01,2013-04-30 04:30:00,
2013-04-29 23:31:00,58.3,49.0,29.42,SE,146,4.0,5.0,71,0.00,,SKC,0.00,VWS V14.01,2013-04-30 04:31:00,
2013-04-29 23:36:00,58.2,49.2,29.42,SE,145,0.0,5.0,72,0.00,,SKC,0.00,VWS V14.01,2013-04-30 04:36:00,
2013-04-29 23:41:00,58.3,49.7,29.42,SE,145,0.0,1.0,73,0.00,,SKC,0.00,VWS V14.01,2013-04-30 04:41:00,
2013-04-29 23:46:00,58.4,49.8,29.41,SE,145,0.0,1.0,73,0.00,,SKC,0.00,VWS V14.01,2013-04-30 04:46:00,
2013-04-29 23:51:00,58.4,49.8,29.41,SE,145,0.0,1.0,73,0.00,,SKC,0.00,VWS V14.01,2013-04-30 04:51:00,
2013-04-29 23:56:00,58.4,49.8,29.41,SE,146,0.0,1.0,73,0.00,,SKC,0.00,VWS V14.01,2013-04-30 04:56:00,